Location: B?ogocice
(50.2413°N, 20.2361°E)
Time: 23:33:32
(UTC+00:00)

Cosmos 1975 Rocket - Pass Details

Date: 15 June 2024
Orbit: 601 x 629 km, 82.5° (Epoch: 18 July)

Event Time Altitude Azimuth Distance (km) Brightness Sun altitude
Exits shadow 00:21:23 20° 212° (SSW) 1,416 4.3 -13.1°
Maximum altitude 00:24:12 55° 284° (WNW) 744 3.4 -12.9°
Drops below altitude 10° 00:28:33 10° 2° (N) 1,996 6.8 -12.6°
Sets 00:30:51 0° 7° (N) 2,911 8.0 -12.4°
